Weather History for KMTN - March, 2013

Change the Weather History Date:

Saturday, March 2, 2013

  Actual Average Record
Temperature  
Mean Temperature 36 °F -  
Max Temperature 39 °F 44 °F 73 °F (2004)
Min Temperature 32 °F 31 °F 19 °F (2009)
Degree Days  
Heating Degree Days 30    
Moisture  
Dew Point 25 °F    
Average Humidity 65    
Maximum Humidity 81    
Minimum Humidity 49    
Precipitation  
Precipitation 0.00 in - - ()
Sea Level Pressure  
Sea Level Pressure 29.85 in    
Wind  
Wind Speed 9 mph (WNW)    
Max Wind Speed 14 mph    
Max Gust Speed 21 mph    
Visibility 10 miles    
Events Snow    
Averages and records for this station are not official NWS values.
T = Trace of Precipitation, MM = Missing Value Source: NWS Daily Summary

Daily Weather History Graph

Daily Weather History Graph

Search for Another Location

Airport or City:

Trip Planner

Search our weather history database for the weather conditions in past years. The results will help you decide how hot, cold, wet, or windy it might be!

Date:

Astronomy

Mar. 02, 2013 Rise Set
Actual Time 6:36 AM EST 5:59 PM EST
Civil Twilight 6:09 AM EST 6:26 PM EST
Nautical Twilight 5:38 AM EST 6:57 PM EST
Astronomical Twilight 5:07 AM EST 7:28 PM EST
Moon 11:34 PM EST (3/2) 9:05 AM EST (3/2)
Length of Visible Light 12h 16m
Length of Day
11h 22m
Waning Gibbous, 74% of the Moon is Illuminated
Mar 2
Waning Gibbous
Mar 4
Last Quarter
Mar 11
New
Mar 19
First Quarter
Mar 27
Full

Hourly Weather History & Observations

Time (EST) Temp. Windchill Dew Point Humidity Pressure Visibility Wind Dir Wind Speed Gust Speed Precip Events Conditions
12:15 AM 37.4 °F 30.8 °F 26.6 °F 65% 29.87 in 10.0 mi WNW 9.2 mph - N/A   Overcast
12:36 AM 37.4 °F 30.3 °F 26.6 °F 65% 29.86 in 10.0 mi WNW 10.4 mph - N/A   Overcast
1:15 AM 37.4 °F 30.8 °F 26.6 °F 65% 29.86 in 10.0 mi WNW 9.2 mph - N/A   Overcast
1:36 AM 37.4 °F 29.8 °F 26.6 °F 65% 29.86 in 10.0 mi WNW 11.5 mph 16.1 mph N/A   Overcast
1:57 AM 37.4 °F 30.8 °F 26.6 °F 65% 29.87 in 10.0 mi WNW 9.2 mph - N/A   Overcast
2:15 AM 37.4 °F 31.4 °F 26.6 °F 65% 29.87 in 10.0 mi WNW 8.1 mph - N/A   Overcast
2:36 AM 37.4 °F 30.8 °F 26.6 °F 65% 29.86 in 10.0 mi WNW 9.2 mph - N/A   Overcast
2:57 AM 35.6 °F 28.0 °F 26.6 °F 70% 29.86 in 10.0 mi WNW 10.4 mph - N/A   Overcast
3:15 AM 35.6 °F 29.2 °F 26.6 °F 70% 29.85 in 10.0 mi WNW 8.1 mph - N/A   Mostly Cloudy
3:36 AM 35.6 °F 29.9 °F 26.6 °F 70% 29.85 in 10.0 mi WNW 6.9 mph - N/A   Scattered Clouds
3:57 AM 32.0 °F 26.4 °F 26.6 °F 80% 29.85 in 10.0 mi WNW 5.8 mph - N/A   Clear
4:18 AM 32.0 °F 26.4 °F 26.6 °F 80% 29.86 in 10.0 mi WNW 5.8 mph - N/A   Clear
4:36 AM 33.8 °F 27.7 °F 26.6 °F 75% 29.87 in 10.0 mi WNW 6.9 mph - N/A   Scattered Clouds
4:57 AM 33.8 °F 28.6 °F 24.8 °F 70% 29.87 in 10.0 mi NW 5.8 mph - N/A   Mostly Cloudy
5:18 AM 33.8 °F 28.6 °F 24.8 °F 70% 29.87 in 10.0 mi WNW 5.8 mph - N/A   Mostly Cloudy
5:33 AM 33.8 °F 28.6 °F 24.8 °F 70% 29.87 in 10.0 mi WNW 5.8 mph - N/A   Overcast
5:45 AM 35.6 °F 30.7 °F 24.8 °F 65% 29.87 in 10.0 mi NW 5.8 mph - N/A   Mostly Cloudy
7:50 AM 35.6 °F 27.5 °F 24.8 °F 65% 29.89 in 10.0 mi WNW 11.5 mph - N/A   Mostly Cloudy
8:45 AM 35.6 °F 28.0 °F 24.8 °F 65% 29.88 in 10.0 mi NW 10.4 mph - N/A   Mostly Cloudy
9:45 AM 37.4 °F 28.9 °F 24.8 °F 60% 29.88 in 10.0 mi WNW 13.8 mph 18.4 mph N/A   Mostly Cloudy
10:45 AM 37.4 °F 33.8 °F 21.2 °F 52% 29.87 in 10.0 mi WNW 4.6 mph - N/A   Mostly Cloudy
11:45 AM 39.2 °F 35.0 °F 21.2 °F 49% 29.86 in 10.0 mi NW 5.8 mph 16.1 mph N/A   Mostly Cloudy
12:45 PM 39.2 °F 31.2 °F 24.8 °F 56% 29.83 in 10.0 mi WNW 13.8 mph - N/A   Overcast
1:45 PM 39.2 °F 32.0 °F 24.8 °F 56% 29.81 in 10.0 mi West 11.5 mph - N/A   Mostly Cloudy
2:45 PM 37.4 °F 29.8 °F 24.8 °F 60% 29.81 in 5.0 mi WNW 11.5 mph 20.7 mph N/A Snow Light Snow
3:45 PM 35.6 °F 28.0 °F 30.2 °F 81% 29.82 in 7.0 mi West 10.4 mph - N/A   Mostly Cloudy
4:50 PM 37.4 °F 30.3 °F 26.6 °F 65% 29.81 in 7.0 mi WNW 10.4 mph - N/A   Mostly Cloudy
5:45 PM 37.4 °F 28.9 °F 23.0 °F 56% 29.82 in 10.0 mi West 13.8 mph - N/A   Mostly Cloudy
6:45 PM 35.6 °F 29.2 °F 21.2 °F 56% 29.84 in 10.0 mi West 8.1 mph - N/A   Mostly Cloudy
7:49 PM 35.6 °F 29.9 °F 21.2 °F 56% 29.84 in 10.0 mi West 6.9 mph - N/A   Scattered Clouds
8:45 PM 35.6 °F 27.1 °F 21.2 °F 56% 29.84 in 10.0 mi West 12.7 mph 19.6 mph N/A   Scattered Clouds
9:50 PM 33.8 °F 25.3 °F 21.2 °F 60% 29.85 in 10.0 mi West 11.5 mph - N/A   Mostly Cloudy
10:18 PM 33.8 °F 24.8 °F 23.0 °F 65% 29.85 in 10.0 mi West 12.7 mph - N/A   Clear
10:39 PM 33.8 °F 25.3 °F 23.0 °F 65% 29.85 in 10.0 mi West 11.5 mph - N/A   Scattered Clouds
11:00 PM 33.8 °F 25.8 °F 23.0 °F 65% 29.85 in 10.0 mi West 10.4 mph - N/A   Clear
11:18 PM 33.8 °F 25.8 °F 23.0 °F 65% 29.85 in 10.0 mi West 10.4 mph - N/A   Clear
11:39 PM 33.8 °F 25.3 °F 23.0 °F 65% 29.85 in 10.0 mi West 11.5 mph 19.6 mph N/A   Clear